When you browse on this site, cookies collect data to enhance your experience and personalize the content and advertising you see.
Visit our Privacy Policy to learn more. By continuing to use the site, you agree to this use of cookies and data.
  • în România
  • Lista ţărilor
  • Pe 7 zile
  • Temperatura apei
  • Hartă satelitară
  • Meteo pe hartă
  • Widget-uri
  • user-avatar
    Intrare

    Meteo pe oră la Gorakhpur

    Astăzi, 16 Februarie, Sâmbătă

    Timp Temperatura Precipitaţii Vânt Presiune Umiditate
    00:00 +19°C° 0 mm 2 m/s 754 mmHg 81%
    01:00 +19°C° 1.7 mm 1 m/s 754 mmHg 85%
    02:00 +18°C° 1.7 mm 1 m/s 754 mmHg 88%
    03:00 +16°C° 1.7 mm 1 m/s 754 mmHg 91%
    04:00 +16°C° 0.9 mm 1 m/s 754 mmHg 91%
    05:00 +16°C° 0.9 mm 1 m/s 754 mmHg 91%
    06:00 +16°C° 0.9 mm 2 m/s 754 mmHg 91%
    07:00 +17°C° 0.1 mm 2 m/s 754 mmHg 88%
    08:00 +18°C° 0.1 mm 2 m/s 755 mmHg 84%
    09:00 +19°C° 0.1 mm 2 m/s 755 mmHg 80%
    10:00 +21°C° 0.1 mm 2 m/s 755 mmHg 72%
    11:00 +23°C° 0.1 mm 2 m/s 755 mmHg 65%
    12:00 +25°C° 0.1 mm 2 m/s 755 mmHg 57%
    13:00 +26°C° 0 mm 2 m/s 754 mmHg 54%
    14:00 +26°C° 0 mm 1 m/s 753 mmHg 51%
    15:00 +25°C° 0 mm 0 m/s 753 mmHg 48%
    16:00 +26°C° 0 mm 1 m/s 752 mmHg 54%
    17:00 +24°C° 0 mm 1 m/s 752 mmHg 60%
    18:00 +23°C° 0 mm 2 m/s 752 mmHg 66%
    19:00 +21°C° 0.4 mm 2 m/s 752 mmHg 72%
    20:00 +19°C° 0.4 mm 2 m/s 752 mmHg 79%
    21:00 +18°C° 0.4 mm 2 m/s 752 mmHg 85%
    22:00 +18°C° 0.1 mm 2 m/s 752 mmHg 87%
    23:00 +17°C° 0.1 mm 2 m/s 752 mmHg 88%

    Mâine, 17 Februarie, Duminică

    Timp Temperatura Precipitaţii Vânt Presiune Umiditate
    00:00 +17°C° 0.1 mm 2 m/s 752 mmHg 90%
    01:00 +16°C° 0 mm 2 m/s 751 mmHg 91%
    02:00 +16°C° 0 mm 2 m/s 751 mmHg 92%
    03:00 +16°C° 0 mm 2 m/s 750 mmHg 94%
    04:00 +15°C° 0 mm 2 m/s 750 mmHg 94%
    05:00 +15°C° 0 mm 2 m/s 750 mmHg 95%
    06:00 +15°C° 0 mm 2 m/s 750 mmHg 96%
    07:00 +16°C° 0 mm 3 m/s 750 mmHg 93%
    08:00 +17°C° 0 mm 3 m/s 751 mmHg 90%
    09:00 +18°C° 0 mm 4 m/s 752 mmHg 86%
    10:00 +20°C° 0 mm 4 m/s 752 mmHg 77%
    11:00 +22°C° 0 mm 4 m/s 752 mmHg 68%
    12:00 +23°C° 0 mm 4 m/s 752 mmHg 59%
    13:00 +25°C° 0 mm 5 m/s 751 mmHg 56%
    14:00 +25°C° 0 mm 5 m/s 751 mmHg 54%
    15:00 +24°C° 0 mm 6 m/s 750 mmHg 52%
    16:00 +23°C° 0 mm 5 m/s 750 mmHg 58%
    17:00 +22°C° 0 mm 4 m/s 749 mmHg 64%
    18:00 +21°C° 0 mm 3 m/s 749 mmHg 69%
    19:00 +20°C° 0 mm 3 m/s 749 mmHg 71%
    20:00 +19°C° 0 mm 3 m/s 750 mmHg 74%
    21:00 +18°C° 0 mm 3 m/s 750 mmHg 76%
    22:00 +17°C° 0 mm 3 m/s 750 mmHg 77%
    23:00 +17°C° 0 mm 3 m/s 750 mmHg 78%

    Poimâine, 18 Februarie, Luni

    Timp Temperatura Precipitaţii Vânt Presiune Umiditate
    00:00 +16°C° 0 mm 3 m/s 750 mmHg 80%
    01:00 +16°C° 0 mm 3 m/s 749 mmHg 82%
    02:00 +14°C° 0 mm 3 m/s 749 mmHg 83%
    03:00 +14°C° 0 mm 3 m/s 749 mmHg 85%
    04:00 +13°C° 0 mm 3 m/s 749 mmHg 86%
    05:00 +13°C° 0 mm 3 m/s 749 mmHg 87%
    06:00 +12°C° 0 mm 3 m/s 749 mmHg 88%
    07:00 +13°C° 0 mm 3 m/s 750 mmHg 83%
    08:00 +16°C° 0 mm 3 m/s 751 mmHg 78%
    09:00 +17°C° 0 mm 3 m/s 751 mmHg 73%
    10:00 +19°C° 0 mm 3 m/s 751 mmHg 66%
    11:00 +21°C° 0 mm 3 m/s 752 mmHg 59%
    12:00 +22°C° 0 mm 3 m/s 752 mmHg 51%
    13:00 +23°C° 0 mm 4 m/s 751 mmHg 49%
    14:00 +25°C° 0 mm 4 m/s 750 mmHg 47%
    15:00 +25°C° 0 mm 4 m/s 750 mmHg 45%
    16:00 +24°C° 0 mm 3 m/s 749 mmHg 50%
    17:00 +23°C° 0 mm 2 m/s 749 mmHg 55%
    18:00 +21°C° 0 mm 2 m/s 749 mmHg 60%
    19:00 +21°C° 0 mm 1 m/s 750 mmHg 60%
    20:00 +20°C° 0 mm 1 m/s 750 mmHg 60%
    21:00 +19°C° 0 mm 1 m/s 751 mmHg 60%
    22:00 +19°C° 0 mm 1 m/s 751 mmHg 61%
    23:00 +18°C° 0 mm 1 m/s 751 mmHg 63%

    19 Februarie, Marţi

    Timp Temperatura Precipitaţii Vânt Presiune Umiditate
    00:00 +18°C° 0 mm 1 m/s 751 mmHg 64%
    01:00 +18°C° 0 mm 1 m/s 751 mmHg 65%
    02:00 +18°C° 0 mm 1 m/s 751 mmHg 65%
    03:00 +17°C° 0 mm 2 m/s 750 mmHg 65%
    04:00 +16°C° 0 mm 1 m/s 750 mmHg 69%
    05:00 +16°C° 0 mm 1 m/s 750 mmHg 73%
    06:00 +15°C° 0 mm 1 m/s 751 mmHg 76%
    07:00 +16°C° 0 mm 1 m/s 752 mmHg 74%
    08:00 +19°C° 0 mm 1 m/s 753 mmHg 72%
    09:00 +20°C° 0 mm 1 m/s 754 mmHg 70%
    10:00 +21°C° 0 mm 2 m/s 754 mmHg 66%
    11:00 +23°C° 0 mm 2 m/s 754 mmHg 62%
    12:00 +25°C° 0 mm 2 m/s 755 mmHg 57%
    13:00 +25°C° 0 mm 2 m/s 754 mmHg 55%
    14:00 +26°C° 0 mm 2 m/s 753 mmHg 52%
    15:00 +26°C° 0 mm 2 m/s 752 mmHg 50%
    16:00 +25°C° 0 mm 1 m/s 752 mmHg 53%
    17:00 +24°C° 0 mm 1 m/s 752 mmHg 57%
    18:00 +21°C° 0 mm 0 m/s 752 mmHg 60%
    19:00 +20°C° 0 mm 0 m/s 753 mmHg 63%
    20:00 +19°C° 0 mm 0 m/s 753 mmHg 66%
    21:00 +20°C° 0 mm 1 m/s 754 mmHg 69%
    22:00 +19°C° 0 mm 1 m/s 754 mmHg 71%
    23:00 +19°C° 0 mm 1 m/s 754 mmHg 73%

    20 Februarie, Miercuri

    Timp Temperatura Precipitaţii Vânt Presiune Umiditate
    00:00 +18°C° 0 mm 1 m/s 754 mmHg 76%
    01:00 +18°C° 0 mm 1 m/s 754 mmHg 78%
    02:00 +16°C° 0 mm 2 m/s 753 mmHg 81%
    03:00 +16°C° 0 mm 2 m/s 753 mmHg 84%
    04:00 +16°C° 0 mm 1 m/s 753 mmHg 85%
    05:00 +15°C° 0 mm 1 m/s 753 mmHg 86%
    06:00 +14°C° 0 mm 0 m/s 753 mmHg 87%
    07:00 +15°C° 0 mm 0 m/s 754 mmHg 83%
    08:00 +17°C° 0 mm 0 m/s 754 mmHg 78%
    09:00 +18°C° 0 mm 0 m/s 755 mmHg 74%
    10:00 +22°C° 0 mm 1 m/s 755 mmHg 67%
    11:00 +24°C° 0 mm 1 m/s 755 mmHg 60%
    12:00 +26°C° 0 mm 2 m/s 755 mmHg 54%
    13:00 +26°C° 0 mm 2 m/s 754 mmHg 51%
    14:00 +27°C° 0 mm 3 m/s 754 mmHg 48%
    15:00 +28°C° 0 mm 3 m/s 753 mmHg 45%
    16:00 +27°C° 0 mm 3 m/s 753 mmHg 51%
    17:00 +26°C° 0 mm 2 m/s 753 mmHg 56%
    18:00 +24°C° 0 mm 2 m/s 753 mmHg 62%
    19:00 +23°C° 0 mm 2 m/s 754 mmHg 63%
    20:00 +23°C° 0 mm 2 m/s 754 mmHg 64%
    21:00 +21°C° 0 mm 2 m/s 755 mmHg 65%
    22:00 +20°C° 0 mm 2 m/s 755 mmHg 65%
    23:00 +19°C° 0 mm 2 m/s 755 mmHg 65%

    21 Februarie, Joi

    Timp Temperatura Precipitaţii Vânt Presiune Umiditate
    00:00 +19°C° 0 mm 2 m/s 755 mmHg 66%
    01:00 +18°C° 0 mm 2 m/s 755 mmHg 65%
    02:00 +18°C° 0 mm 2 m/s 754 mmHg 64%
    03:00 +17°C° 0 mm 2 m/s 754 mmHg 64%
    04:00 +17°C° 0 mm 2 m/s 754 mmHg 65%
    05:00 +16°C° 0 mm 1 m/s 754 mmHg 67%
    06:00 +16°C° 0 mm 1 m/s 754 mmHg 68%
    07:00 +18°C° 0 mm 1 m/s 754 mmHg 65%
    08:00 +20°C° 0 mm 1 m/s 755 mmHg 62%
    09:00 +21°C° 0 mm 1 m/s 756 mmHg 59%
    10:00 +23°C° 0 mm 1 m/s 756 mmHg 54%
    11:00 +25°C° 0 mm 1 m/s 756 mmHg 49%
    12:00 +27°C° 0 mm 2 m/s 756 mmHg 44%
    13:00 +28°C° 0 mm 1 m/s 755 mmHg 42%
    14:00 +29°C° 0 mm 1 m/s 754 mmHg 40%
    15:00 +30°C° 0 mm 1 m/s 754 mmHg 38%
    16:00 +28°C° 0 mm 1 m/s 754 mmHg 43%
    17:00 +25°C° 0 mm 0 m/s 753 mmHg 48%
    18:00 +24°C° 0 mm 0 m/s 753 mmHg 53%
    19:00 +25°C° 0 mm 1 m/s 754 mmHg 54%
    20:00 +24°C° 0 mm 1 m/s 754 mmHg 55%
    21:00 +23°C° 0 mm 1 m/s 754 mmHg 56%
    22:00 +21°C° 0 mm 2 m/s 754 mmHg 57%
    23:00 +21°C° 0 mm 2 m/s 754 mmHg 58%
    Arată mai mult